Boulder City, NV

4:09 PM PST on February 25, 2017 (GMT -0800)
Boulder City

Weather History for KBVU - February, 2013

Change the Weather History Date:

Saturday, February 16, 2013

  Actual Average (KLAS) Record (KLAS)
Temperature  
Mean Temperature 50 °F -  
Max Temperature 64 °F 63 °F 81 °F (2014)
Min Temperature 35 °F 40 °F 24 °F (1949)
Degree Days  
Heating Degree Days 16    
Moisture  
Dew Point 20 °F    
Average Humidity 31    
Maximum Humidity 52    
Minimum Humidity 16    
Precipitation  
Precipitation 0.00 in - - ()
Sea Level Pressure  
Sea Level Pressure 30.20 in    
Wind  
Wind Speed 3 mph (North)    
Max Wind Speed 9 mph    
Max Gust Speed -    
Visibility 10 miles    
Events      
Averages and records for this station are not official NWS values.
T = Trace of Precipitation, MM = Missing Value Source: NWS Daily Summary

Daily Weather History Graph

Daily Weather History Graph

Search for Another Location

Airport or City:

Trip Planner

Search our weather history database for the weather conditions in past years. The results will help you decide how hot, cold, wet, or windy it might be!

Date:

Astronomy

Feb. 16, 2013 Rise Set
Actual Time 6:25 AM PST 5:22 PM PST
Civil Twilight 5:59 AM PST 5:48 PM PST
Nautical Twilight 5:29 AM PST 6:18 PM PST
Astronomical Twilight 4:59 AM PST 6:48 PM PST
Moon 9:54 AM PST (2/16) No Moon Set
Length of Visible Light 11h 49m
Length of Day
10h 57m
Waxing Crescent, 40% of the Moon is Illuminated
Feb 16
Waxing Crescent
Feb 17
First Quarter
Feb 25
Full
Mar 4
Last Quarter
Mar 11
New

Hourly Weather History & Observations

Time (PST) Temp. Windchill Dew Point Humidity Pressure Visibility Wind Dir Wind Speed Gust Speed Precip Events Conditions
12:15 AM 44.6 °F 43.1 °F 19.4 °F 37% 30.36 in 10.0 mi West 3.5 mph - N/A   Unknown
12:35 AM 46.4 °F - 17.6 °F 32% 30.37 in 10.0 mi Calm Calm - N/A   Unknown
12:55 AM 41.0 °F - 19.4 °F 42% 30.37 in 10.0 mi Calm Calm - N/A   Unknown
1:15 AM 41.0 °F - 19.4 °F 42% 30.37 in 10.0 mi Calm Calm - N/A   Unknown
1:35 AM 46.4 °F 45.2 °F 17.6 °F 32% 30.37 in 10.0 mi NNW 3.5 mph - N/A   Unknown
1:55 AM 46.4 °F 41.9 °F 19.4 °F 34% 30.36 in 10.0 mi North 9.2 mph - N/A   Unknown
2:15 AM 44.6 °F 41.4 °F 19.4 °F 37% 30.36 in 10.0 mi WSW 5.8 mph - N/A   Unknown
2:35 AM 44.6 °F - 17.6 °F 34% 30.35 in 10.0 mi Calm Calm - N/A   Unknown
3:15 AM 46.4 °F - 23.0 °F 40% 30.34 in 10.0 mi Calm Calm - N/A   Unknown
3:35 AM 46.4 °F - 21.2 °F 37% 30.34 in 10.0 mi Calm Calm - N/A   Unknown
3:55 AM 44.6 °F - 19.4 °F 37% 30.34 in 10.0 mi Calm Calm - N/A   Unknown
4:15 AM 41.0 °F - 21.2 °F 45% 30.34 in 10.0 mi Calm Calm - N/A   Unknown
4:35 AM 35.6 °F 29.9 °F 19.4 °F 52% 30.34 in 10.0 mi NNW 6.9 mph - N/A   Unknown
4:55 AM 41.0 °F 35.2 °F 21.2 °F 45% 30.34 in 10.0 mi North 9.2 mph - N/A   Unknown
5:15 AM 44.6 °F 43.1 °F 21.2 °F 39% 30.34 in 10.0 mi West 3.5 mph - N/A   Unknown
5:35 AM 39.2 °F - 21.2 °F 49% 30.33 in 10.0 mi Calm Calm - N/A   Unknown
5:55 AM 39.2 °F - 21.2 °F 49% 30.33 in 10.0 mi Calm Calm - N/A   Unknown
6:15 AM 41.0 °F - 21.2 °F 45% 30.34 in 10.0 mi Calm Calm - N/A   Unknown
6:35 AM 39.2 °F - 21.2 °F 49% 30.35 in 10.0 mi Calm Calm - N/A   Unknown
6:55 AM 39.2 °F - 19.4 °F 45% 30.35 in 10.0 mi Calm Calm - N/A   Unknown
7:15 AM 42.8 °F 38.6 °F 21.2 °F 42% 30.35 in 10.0 mi NW 6.9 mph - N/A   Unknown
7:35 AM 48.2 °F - 21.2 °F 34% 30.35 in 10.0 mi WNW 6.9 mph - N/A   Unknown
10:15 AM 57.2 °F - 23.0 °F 27% 30.32 in 10.0 mi Calm Calm - N/A   Unknown
10:35 AM 57.2 °F - 23.0 °F 27% 30.31 in 10.0 mi Calm Calm - N/A   Unknown
10:55 AM 59.0 °F - 23.0 °F 25% 30.30 in 10.0 mi SE 3.5 mph - N/A   Unknown
11:15 AM 59.0 °F - 24.8 °F 27% 30.29 in 10.0 mi Calm Calm - N/A   Unknown
11:35 AM 60.8 °F - 23.0 °F 23% 30.27 in 10.0 mi ENE 3.5 mph - N/A   Unknown
11:55 AM 62.6 °F - 23.0 °F 22% 30.26 in 10.0 mi NE 4.6 mph - N/A   Unknown
12:15 PM 62.6 °F - 23.0 °F 22% 30.24 in 10.0 mi NE 4.6 mph - N/A   Unknown
12:35 PM 62.6 °F - 23.0 °F 22% 30.22 in 10.0 mi NNE 5.8 mph - N/A   Unknown
12:55 PM 62.6 °F - 21.2 °F 20% 30.21 in 10.0 mi Calm Calm - N/A   Unknown
1:15 PM 64.4 °F - 21.2 °F 19% 30.20 in 10.0 mi North 4.6 mph - N/A   Unknown
1:35 PM 64.4 °F - 19.4 °F 18% 30.18 in 10.0 mi NE 5.8 mph - N/A   Unknown
1:55 PM 64.4 °F - 19.4 °F 18% 30.17 in 10.0 mi NNE 5.8 mph - N/A   Unknown
2:15 PM 64.4 °F - 17.6 °F 16% 30.16 in 10.0 mi NE 3.5 mph - N/A   Unknown
2:35 PM 64.4 °F - 17.6 °F 16% 30.15 in 10.0 mi ENE 6.9 mph - N/A   Unknown
2:55 PM 64.4 °F - 17.6 °F 16% 30.14 in 10.0 mi NE 6.9 mph - N/A   Unknown
3:15 PM 64.4 °F - 17.6 °F 16% 30.13 in 10.0 mi NE 5.8 mph - N/A   Unknown
3:35 PM 64.4 °F - 17.6 °F 16% 30.12 in 10.0 mi NNE 6.9 mph - N/A   Unknown
3:55 PM 64.4 °F - 17.6 °F 16% 30.11 in 10.0 mi NNE 5.8 mph - N/A   Unknown
4:15 PM 64.4 °F - 19.4 °F 18% 30.10 in 10.0 mi NE 8.1 mph - N/A   Unknown
4:35 PM 62.6 °F - 19.4 °F 19% 30.09 in 10.0 mi NNE 5.8 mph - N/A   Unknown
4:55 PM 60.8 °F - 19.4 °F 20% 30.08 in 10.0 mi NNE 5.8 mph - N/A   Unknown
5:15 PM 59.0 °F - 21.2 °F 23% 30.08 in 9.0 mi NNE 5.8 mph - N/A   Unknown
5:35 PM 55.4 °F - 21.2 °F 26% 30.07 in 10.0 mi NNE 6.9 mph - N/A   Unknown
5:55 PM 53.6 °F - 21.2 °F 28% 30.08 in 10.0 mi North - - N/A   Unknown
6:15 PM 53.6 °F - 19.4 °F 26% 30.07 in 10.0 mi North 5.8 mph - N/A   Unknown
6:35 PM 53.6 °F - 17.6 °F 24% 30.07 in 10.0 mi NNE 6.9 mph - N/A   Unknown
6:55 PM 53.6 °F - 17.6 °F 24% 30.07 in 10.0 mi North 6.9 mph - N/A   Unknown
7:15 PM 50.0 °F - 17.6 °F 28% 30.06 in 10.0 mi NNE 6.9 mph - N/A   Unknown
7:35 PM 50.0 °F - 17.6 °F 28% 30.06 in 10.0 mi Calm Calm - N/A   Unknown
7:55 PM 50.0 °F - 19.4 °F 30% 30.06 in 10.0 mi North 3.5 mph - N/A   Unknown
8:15 PM 50.0 °F - 19.4 °F 30% 30.06 in 10.0 mi NNW 4.6 mph - N/A   Unknown
8:35 PM 50.0 °F - 19.4 °F 30% 30.05 in 10.0 mi Calm Calm - N/A   Unknown
8:55 PM 50.0 °F - 17.6 °F 28% 30.05 in 10.0 mi Calm Calm - N/A   Unknown
9:15 PM 48.2 °F - 19.4 °F 32% 30.05 in 10.0 mi Calm Calm - N/A   Unknown
9:35 PM 46.4 °F - 19.4 °F 34% 30.04 in 10.0 mi Calm Calm - N/A   Unknown
9:55 PM 46.4 °F 44.3 °F 19.4 °F 34% 30.04 in 10.0 mi NW 4.6 mph - N/A   Unknown
10:15 PM 46.4 °F 45.2 °F 19.4 °F 34% 30.04 in 10.0 mi WNW 3.5 mph - N/A   Unknown
10:35 PM 48.2 °F - 19.4 °F 32% 30.03 in 10.0 mi Calm Calm - N/A   Unknown
10:55 PM 44.6 °F 43.1 °F 19.4 °F 37% 30.02 in 10.0 mi NNW 3.5 mph - N/A   Unknown
11:15 PM 44.6 °F - 19.4 °F 37% 30.01 in 10.0 mi Calm Calm - N/A   Unknown
11:35 PM 44.6 °F - 21.2 °F 39% 30.01 in 10.0 mi Calm Calm - N/A   Unknown
11:55 PM 41.0 °F - 21.2 °F 45% 30.01 in 10.0 mi Calm Calm - N/A   Unknown